Location: Unspecified
(0.0000°N, 0.0000°E)
Time: 06:29:01
(UTC+00:00)

Vanguard 2 - Pass Details

Date: 27 May 2026
Orbit: 553 x 2894 km, 32.9° (Epoch: 9 June)

Event Time Altitude Azimuth Distance (km) Brightness Sun altitude
Rises 19:59:45 0° 263° (W) 3,528 11.8 -28.3°
Reaches altitude 10° 20:02:11 10° 273° (W) 2,826 11.2 -28.9°
Maximum altitude 20:08:25 33° 336° (NNW) 2,165 10.1 -30.3°
Drops below altitude 10° 20:18:03 10° 35° (NE) 4,396 11.3 -32.5°
Sets 20:22:58 0° 43° (NE) 5,800 11.9 -33.6°
